Hourly Weather Rudenka

Today, 23 July, Friday

Time Temperature Precipitation Wind Pressure Humidity
00:00 +13°C° 0 mm 0 mps 728 mmHg 92%
01:00 +13°C° 0 mm 0 mps 728 mmHg 91%
02:00 +13°C° 0 mm 0 mps 728 mmHg 91%
03:00 +13°C° 0 mm 0 mps 727 mmHg 91%
04:00 +13°C° 0 mm 0 mps 727 mmHg 90%
05:00 +14°C° 0 mm 0 mps 727 mmHg 88%
06:00 +15°C° 0 mm 0 mps 727 mmHg 85%
07:00 +16°C° 0 mm 0 mps 727 mmHg 83%
08:00 +17°C° 0 mm 0 mps 728 mmHg 78%
09:00 +20°C° 0 mm 1 mps 728 mmHg 73%
10:00 +21°C° 0 mm 1 mps 728 mmHg 68%
11:00 +22°C° 0 mm 1 mps 727 mmHg 62%
12:00 +23°C° 0 mm 1 mps 727 mmHg 56%
13:00 +24°C° 0 mm 1 mps 727 mmHg 52%
14:00 +24°C° 0 mm 1 mps 727 mmHg 55%
15:00 +23°C° 0 mm 1 mps 727 mmHg 59%
16:00 +23°C° 0 mm 1 mps 727 mmHg 62%
17:00 +22°C° 0.1 mm 1 mps 727 mmHg 68%
18:00 +20°C° 0.1 mm 1 mps 726 mmHg 75%
19:00 +19°C° 0.1 mm 1 mps 726 mmHg 81%
20:00 +18°C° 0 mm 1 mps 726 mmHg 82%
21:00 +18°C° 0 mm 1 mps 726 mmHg 84%
22:00 +16°C° 0 mm 1 mps 727 mmHg 85%
23:00 +16°C° 0 mm 1 mps 727 mmHg 83%

Tomorrow, 24 July, Saturday

Time Temperature Precipitation Wind Pressure Humidity
00:00 +16°C° 0 mm 1 mps 727 mmHg 82%
01:00 +18°C° 0 mm 1 mps 727 mmHg 80%
02:00 +18°C° 0 mm 1 mps 726 mmHg 79%
03:00 +16°C° 0 mm 0 mps 726 mmHg 79%
04:00 +16°C° 0 mm 0 mps 726 mmHg 78%
05:00 +16°C° 0 mm 0 mps 726 mmHg 77%
06:00 +19°C° 0 mm 1 mps 726 mmHg 76%
07:00 +20°C° 0 mm 1 mps 726 mmHg 75%
08:00 +21°C° 0 mm 1 mps 726 mmHg 70%
09:00 +22°C° 0 mm 1 mps 727 mmHg 66%
10:00 +23°C° 0 mm 1 mps 727 mmHg 61%
11:00 +24°C° 0 mm 1 mps 727 mmHg 56%
12:00 +25°C° 0 mm 1 mps 727 mmHg 52%
13:00 +26°C° 0 mm 1 mps 726 mmHg 48%
14:00 +25°C° 0 mm 2 mps 726 mmHg 52%
15:00 +25°C° 0 mm 2 mps 726 mmHg 56%
16:00 +24°C° 0 mm 2 mps 726 mmHg 60%
17:00 +23°C° 0 mm 2 mps 726 mmHg 66%
18:00 +20°C° 0 mm 2 mps 726 mmHg 72%
19:00 +20°C° 0 mm 1 mps 726 mmHg 77%
20:00 +19°C° 0 mm 2 mps 726 mmHg 75%
21:00 +19°C° 0 mm 2 mps 726 mmHg 74%
22:00 +18°C° 0 mm 2 mps 726 mmHg 72%
23:00 +18°C° 0 mm 2 mps 726 mmHg 70%

Day after tomorrow, 25 July, Sunday

Time Temperature Precipitation Wind Pressure Humidity
00:00 +18°C° 0 mm 2 mps 726 mmHg 67%
01:00 +19°C° 0 mm 2 mps 726 mmHg 65%
02:00 +18°C° 0 mm 2 mps 726 mmHg 65%
03:00 +18°C° 0 mm 2 mps 726 mmHg 65%
04:00 +19°C° 0 mm 1 mps 726 mmHg 65%
05:00 +20°C° 0 mm 1 mps 726 mmHg 65%
06:00 +20°C° 0 mm 1 mps 726 mmHg 65%
07:00 +21°C° 0 mm 1 mps 726 mmHg 66%
08:00 +23°C° 0 mm 1 mps 726 mmHg 60%
09:00 +25°C° 0 mm 2 mps 727 mmHg 54%
10:00 +26°C° 0 mm 2 mps 727 mmHg 48%
11:00 +28°C° 0 mm 2 mps 727 mmHg 44%
12:00 +29°C° 0 mm 2 mps 727 mmHg 40%
13:00 +30°C° 0 mm 3 mps 726 mmHg 36%
14:00 +29°C° 0 mm 3 mps 726 mmHg 41%
15:00 +28°C° 0 mm 3 mps 726 mmHg 46%
16:00 +27°C° 0 mm 3 mps 726 mmHg 52%
17:00 +26°C° 0 mm 2 mps 726 mmHg 59%
18:00 +24°C° 0 mm 2 mps 726 mmHg 67%
19:00 +21°C° 0 mm 2 mps 726 mmHg 74%
20:00 +21°C° 0 mm 2 mps 726 mmHg 75%
21:00 +20°C° 0 mm 2 mps 726 mmHg 75%
22:00 +20°C° 0 mm 2 mps 726 mmHg 76%
23:00 +20°C° 0 mm 2 mps 726 mmHg 74%

26 July, Monday

Time Temperature Precipitation Wind Pressure Humidity
00:00 +20°C° 0 mm 2 mps 725 mmHg 72%
01:00 +19°C° 0 mm 2 mps 725 mmHg 70%
02:00 +19°C° 0 mm 2 mps 725 mmHg 68%
03:00 +19°C° 0 mm 2 mps 725 mmHg 65%
04:00 +20°C° 0 mm 2 mps 725 mmHg 63%
05:00 +20°C° 0 mm 3 mps 725 mmHg 62%
06:00 +21°C° 0 mm 3 mps 725 mmHg 61%
07:00 +22°C° 0 mm 4 mps 725 mmHg 60%
08:00 +25°C° 0 mm 4 mps 726 mmHg 54%
09:00 +27°C° 0 mm 5 mps 726 mmHg 48%
10:00 +29°C° 0 mm 5 mps 726 mmHg 42%
11:00 +30°C° 0 mm 5 mps 726 mmHg 40%
12:00 +32°C° 0 mm 5 mps 726 mmHg 39%
13:00 +32°C° 0 mm 5 mps 726 mmHg 37%
14:00 +32°C° 0 mm 5 mps 726 mmHg 39%
15:00 +32°C° 0 mm 5 mps 726 mmHg 42%
16:00 +32°C° 0 mm 4 mps 726 mmHg 44%
17:00 +29°C° 0 mm 3 mps 725 mmHg 53%
18:00 +27°C° 0 mm 3 mps 725 mmHg 62%
19:00 +24°C° 0 mm 2 mps 725 mmHg 70%
20:00 +23°C° 0.1 mm 2 mps 725 mmHg 74%
21:00 +21°C° 0.1 mm 2 mps 725 mmHg 77%
22:00 +20°C° 0.1 mm 2 mps 725 mmHg 81%
23:00 +20°C° 0.5 mm 2 mps 725 mmHg 83%

27 July, Tuesday

Time Temperature Precipitation Wind Pressure Humidity
00:00 +20°C° 0.5 mm 2 mps 725 mmHg 85%
01:00 +19°C° 0.5 mm 2 mps 725 mmHg 87%
02:00 +20°C° 0 mm 3 mps 725 mmHg 84%
03:00 +20°C° 0 mm 3 mps 725 mmHg 81%
04:00 +20°C° 0 mm 3 mps 725 mmHg 78%
05:00 +22°C° 0 mm 3 mps 725 mmHg 74%
06:00 +24°C° 0 mm 3 mps 725 mmHg 69%
07:00 +25°C° 0 mm 4 mps 725 mmHg 65%
08:00 +27°C° 0 mm 4 mps 725 mmHg 59%
09:00 +29°C° 0 mm 5 mps 726 mmHg 52%
10:00 +30°C° 0 mm 5 mps 726 mmHg 46%
11:00 +32°C° 0 mm 5 mps 726 mmHg 44%
12:00 +33°C° 0 mm 5 mps 726 mmHg 42%
13:00 +34°C° 0 mm 6 mps 726 mmHg 39%
14:00 +34°C° 0 mm 5 mps 726 mmHg 40%
15:00 +34°C° 0 mm 4 mps 725 mmHg 40%
16:00 +34°C° 0 mm 3 mps 725 mmHg 41%
17:00 +31°C° 0 mm 3 mps 725 mmHg 50%
18:00 +28°C° 0 mm 3 mps 724 mmHg 58%
19:00 +26°C° 0 mm 2 mps 724 mmHg 67%
20:00 +26°C° 0 mm 2 mps 724 mmHg 66%
21:00 +25°C° 0 mm 2 mps 724 mmHg 64%
22:00 +25°C° 0 mm 2 mps 724 mmHg 63%
23:00 +25°C° 0 mm 2 mps 724 mmHg 63%

28 July, Wednesday

Time Temperature Precipitation Wind Pressure Humidity
00:00 +25°C° 0 mm 3 mps 724 mmHg 63%
01:00 +24°C° 0 mm 3 mps 724 mmHg 63%
02:00 +24°C° 0 mm 3 mps 724 mmHg 64%
03:00 +22°C° 0 mm 3 mps 723 mmHg 65%
04:00 +22°C° 0 mm 3 mps 723 mmHg 66%
05:00 +23°C° 0 mm 4 mps 723 mmHg 64%
06:00 +25°C° 0 mm 4 mps 724 mmHg 61%
07:00 +26°C° 0 mm 5 mps 724 mmHg 59%
08:00 +27°C° 0 mm 5 mps 724 mmHg 57%
09:00 +28°C° 0 mm 5 mps 725 mmHg 54%
10:00 +28°C° 0 mm 5 mps 725 mmHg 51%
11:00 +28°C° 0.1 mm 5 mps 725 mmHg 55%
12:00 +28°C° 0.1 mm 4 mps 725 mmHg 58%
13:00 +27°C° 0.1 mm 4 mps 725 mmHg 61%
14:00 +26°C° 0.2 mm 3 mps 725 mmHg 66%
15:00 +25°C° 0.2 mm 3 mps 726 mmHg 72%
16:00 +24°C° 0.2 mm 3 mps 726 mmHg 77%
17:00 +23°C° 0.3 mm 2 mps 726 mmHg 83%
18:00 +21°C° 0.3 mm 2 mps 726 mmHg 88%
19:00 +21°C° 0.3 mm 1 mps 726 mmHg 93%
20:00 +20°C° 0 mm 1 mps 726 mmHg 93%
21:00 +19°C° 0 mm 1 mps 726 mmHg 93%
22:00 +19°C° 0 mm 1 mps 727 mmHg 93%
23:00 +19°C° 0 mm 1 mps 727 mmHg 93%
Show more

We Need Your Consent

Meteoprog and our Service Providers may store and access personal data such as cookies, device identifiers or other similar technologies on your device and process such data to personalise content and ads, as well as provide social media features and to analyse the traffic.

  • Store and/or access information on your device

    Cookies, device identifiers or other information can be stored or accessed on your device for the purposes indicated above.

  • Personalised ads and content, ad and content measurement, audience insights, and products development

    Ads and content can be personalised based on a profile. More data can be added to better personalise ads and content. Ad and content performance can be measured. Insights about the audience who saw the ads and content can be derived. Such data can be used to develop or improve user’s experience, systems and software.

By clicking ‘I Agree’ you will allow the use of indicated cookies, device identifiers, web beacons or other similar technologies. Your settings can be changed in the browser on your device.

For certain purposes, legitimate interests may be relied on, rather than consent. You can read more about this in our Privacy and Cookie Policy.